Date,TemperatureHighF,TemperatureAvgF,TemperatureLowF,DewpointHighF,DewpointAvgF,DewpointLowF,HumidityHigh,HumidityAvg,HumidityLow,PressureMaxIn,PressureMinIn,WindSpeedMaxMPH,WindSpeedAvgMPH,GustSpeedMaxMPH,PrecipitationSumIn
2013-1-1,24.1,18.7,12.2,15.2,12.9,8.3,91,79,60,0.00,40.00,6,1,6,0.00
2013-1-2,19.8,17.8,15.8,14.7,11.2,9.2,91,75,66,0.00,40.00,4,0,4,0.00
2013-1-3,23.0,17.3,12.9,10.6,8.2,5.3,78,67,50,0.00,40.00,6,1,6,0.00
2013-1-4,37.6,32.2,16.2,17.1,14.1,7.4,75,47,42,0.00,40.00,9,3,9,0.00
2013-1-5,28.4,25.9,0.0,23.7,20.6,0.0,93,80,66,0.00,40.00,6,0,6,0.00
2013-1-6,37.6,32.4,24.8,25.1,23.0,20.9,88,68,54,0.00,40.00,10,2,10,0.00
2013-1-7,48.4,41.3,33.6,31.4,27.3,20.9,77,58,47,0.00,40.00,17,4,17,0.00
2013-1-8,52.7,43.2,37.4,33.3,30.9,26.1,79,62,46,0.00,40.00,13,2,13,0.00
2013-1-9,46.6,38.6,26.8,30.4,23.0,14.6,74,53,41,0.00,40.00,16,4,16,0.00
2013-1-10,34.7,26.7,19.6,27.4,18.9,12.6,84,73,49,0.00,40.00,8,0,8,0.00
2013-1-11,32.2,22.2,15.8,18.3,13.4,10.4,86,70,44,0.00,40.00,8,0,8,0.00
2013-1-12,26.6,17.4,10.4,10.9,7.0,3.8,79,64,45,0.00,40.00,9,1,9,0.00
2013-1-13,28.4,17.8,9.5,12.9,7.3,2.5,77,65,41,0.00,40.00,8,1,8,0.00
2013-1-14,37.2,23.5,12.7,22.5,9.1,0.8,79,55,36,0.00,40.00,9,2,9,0.00
2013-1-15,44.2,30.2,19.6,20.7,16.0,10.3,75,57,38,0.00,40.00,10,3,10,0.00
2013-1-16,49.8,33.8,23.2,19.9,15.3,10.2,61,48,29,0.00,40.00,10,3,10,0.00
2013-1-17,48.7,35.0,23.9,19.7,15.1,11.6,61,45,30,0.00,40.00,11,3,11,0.00
2013-1-18,46.4,34.2,26.1,18.0,14.0,10.2,53,44,31,0.00,40.00,11,4,11,0.00
2013-1-19,51.4,34.4,24.4,21.4,16.1,11.2,68,48,28,0.00,40.00,9,2,10,0.00
2013-1-20,43.3,30.0,20.8,23.0,16.2,9.9,89,58,37,0.00,40.00,6,1,6,0.00
2013-1-21,45.1,25.5,16.0,21.0,16.2,9.8,92,70,30,0.00,40.00,8,1,8,0.00
2013-1-22,26.1,21.3,17.1,22.0,18.8,14.3,96,90,80,0.00,40.00,8,0,8,0.00
2013-1-23,34.3,27.1,22.8,32.3,24.1,20.3,95,88,77,0.00,40.00,8,1,8,0.00
2013-1-24,51.1,37.4,28.8,33.1,30.5,26.6,97,78,40,0.00,40.00,6,0,6,0.00
2013-1-25,47.7,43.0,37.8,43.2,38.4,32.5,97,84,69,0.00,40.00,10,1,10,0.00
2013-1-26,44.8,35.4,28.2,37.2,22.2,18.2,97,60,39,0.00,40.00,11,2,11,0.00
2013-1-27,40.8,32.4,26.1,25.0,21.2,17.7,82,65,40,0.00,40.00,14,1,14,0.00
2013-1-28,38.7,35.1,31.1,29.9,25.1,22.2,80,67,53,0.00,40.00,12,2,12,0.00
2013-1-29,46.9,39.9,36.3,28.4,26.7,24.0,69,59,47,0.00,40.00,13,4,13,0.00
2013-1-30,48.7,42.7,36.5,30.5,28.0,23.7,77,56,47,0.00,40.00,13,2,13,0.00
2013-1-31,48.0,37.3,28.2,33.0,29.2,26.2,95,74,47,0.00,40.00,5,0,5,0.00
2013-2-1,49.8,35.1,26.1,33.3,28.6,25.1,97,80,42,0.00,40.00,6,0,6,0.00
2013-2-2,45.1,32.6,23.5,32.7,26.7,22.1,96,81,50,0.00,40.00,6,0,6,0.00
2013-2-3,55.9,41.6,28.9,29.6,25.2,19.5,90,57,29,0.00,40.00,10,2,10,0.00
2013-2-4,52.0,40.9,32.9,30.1,26.1,22.0,80,57,36,0.00,40.00,6,0,6,0.00
2013-2-5,48.9,39.1,32.4,29.0,24.3,20.9,72,56,37,0.00,40.00,15,2,15,0.00
2013-2-6,47.7,38.2,31.6,24.9,22.4,19.7,71,54,37,0.00,40.00,8,0,8,0.00
2013-2-7,43.7,34.5,25.7,24.9,20.3,14.8,84,58,34,0.00,40.00,9,1,9,0.00
2013-2-8,41.5,29.1,18.5,25.9,17.8,14.0,90,66,35,0.00,40.00,8,0,8,0.00
2013-2-9,45.1,29.9,17.6,28.6,19.9,13.9,90,69,41,0.00,40.00,5,0,6,0.00
2013-2-10,45.9,31.3,20.8,27.8,20.2,15.6,93,67,37,0.00,40.00,6,0,6,0.00
2013-2-11,49.6,32.5,19.0,26.5,21.5,14.8,90,67,38,0.00,40.00,10,1,10,0.00
2013-2-12,50.4,37.3,27.1,28.9,26.4,21.8,95,68,39,0.00,40.00,13,2,13,0.00
2013-2-13,47.1,37.4,28.9,31.3,27.4,24.2,90,68,44,0.00,40.00,9,1,9,0.00
2013-2-14,53.2,37.5,25.2,34.4,28.8,23.9,98,75,39,0.00,40.00,8,1,8,0.00
2013-2-15,52.5,37.7,27.1,35.5,30.3,26.4,98,77,46,0.00,40.00,8,0,8,0.00
2013-2-16,52.3,38.5,28.8,31.8,27.1,18.9,95,67,37,0.00,40.00,14,2,14,0.00
2013-2-17,43.0,31.7,26.1,22.1,20.6,17.5,77,64,38,0.00,40.00,8,1,8,0.00
2013-2-18,39.7,31.2,23.5,23.5,20.2,16.8,88,65,44,0.00,40.00,6,0,6,0.00
2013-2-19,43.3,30.4,20.3,21.5,18.8,16.6,88,65,38,0.00,40.00,9,1,9,0.00
2013-2-20,45.5,31.4,19.2,24.0,18.8,15.5,90,63,36,0.00,40.00,10,1,10,0.00
2013-2-21,40.8,34.9,25.3,24.1,20.6,17.6,83,57,42,0.00,40.00,15,3,15,0.00
2013-2-22,50.2,38.4,28.6,32.3,24.6,19.1,92,58,39,0.00,40.00,17,4,17,0.00
2013-2-23,44.6,32.8,24.4,25.2,18.6,14.9,86,57,39,0.00,40.00,16,2,16,0.00
2013-2-24,47.1,32.6,21.2,22.8,18.8,16.2,85,59,34,0.00,40.00,9,1,9,0.00
2013-2-25,44.2,35.3,25.5,33.4,22.9,14.9,87,62,39,0.00,40.00,15,3,15,0.00
2013-2-26,49.5,35.0,22.3,21.7,16.1,11.1,85,50,24,0.00,40.00,11,1,11,0.00
2013-2-27,51.4,39.6,28.8,28.5,20.1,13.1,59,46,31,0.00,40.00,10,1,10,0.00
2013-2-28,56.7,47.0,38.7,38.2,32.8,24.8,84,58,44,0.00,40.00,10,2,10,0.00
2013-3-1,61.7,52.4,38.5,36.3,31.9,28.7,76,47,29,0.00,40.00,9,2,9,0.00
2013-3-2,56.8,49.9,38.8,32.6,31.4,29.7,76,50,36,0.00,40.00,10,2,10,0.00
2013-3-3,46.4,42.5,33.3,32.5,14.4,10.1,63,32,27,0.00,40.00,8,2,8,0.00
2013-3-5,42.6,37.3,31.1,31.6,22.2,16.6,93,56,40,0.00,40.00,10,1,10,0.00
2013-3-6,39.4,33.2,32.0,33.5,31.4,20.2,98,94,47,0.00,40.00,15,0,15,0.00
2013-3-7,46.4,40.3,36.3,27.5,23.4,20.4,70,51,37,0.00,40.00,8,1,8,0.00
2013-3-8,39.9,36.3,36.3,27.5,27.5,24.2,70,70,70,0.00,40.00,3,3,3,0.00
2013-3-9,55.4,48.8,35.2,20.8,18.8,13.8,49,31,25,0.00,40.00,6,1,6,0.00
2013-3-10,59.7,48.5,30.9,37.1,29.4,14.8,80,49,26,0.00,40.00,10,2,10,0.00
2013-3-11,57.2,46.2,37.6,38.3,35.2,33.1,88,67,43,0.00,40.00,9,1,9,0.00
2013-3-12,64.0,47.9,34.5,37.7,32.2,23.7,95,60,25,0.00,40.00,10,1,10,0.00
2013-3-13,66.9,50.6,39.2,34.3,30.7,27.9,71,49,27,0.00,40.00,8,1,8,0.00
2013-3-14,68.0,51.8,39.2,34.8,29.2,20.6,76,46,23,0.00,40.00,14,2,14,0.00
2013-3-15,62.2,49.6,38.5,37.2,31.6,25.4,83,53,26,0.00,40.00,9,1,9,0.00
2013-3-16,56.3,42.7,32.7,32.5,28.5,23.5,89,61,34,0.00,40.00,16,3,16,0.00
2013-3-17,44.6,40.3,35.6,19.8,18.4,16.3,47,41,36,0.00,40.00,13,6,13,0.00
2013-3-18,53.4,40.2,25.0,23.0,20.0,17.3,78,47,26,0.00,40.00,8,1,8,0.00
2013-3-19,49.8,37.6,28.4,35.9,24.1,18.6,93,61,35,0.00,40.00,6,0,6,0.04
2013-3-20,54.1,42.9,32.0,42.2,31.7,19.0,96,66,39,0.00,40.00,17,4,17,0.08
2013-3-21,46.2,35.4,27.1,23.8,18.6,13.1,79,51,38,0.00,40.00,17,4,17,0.00
2013-3-22,44.4,32.8,23.5,22.9,16.8,11.0,89,55,29,0.00,40.00,14,2,14,0.00
2013-3-23,46.0,34.0,24.6,19.5,16.7,10.0,76,52,30,0.00,40.00,8,0,8,0.00
2013-3-24,48.7,36.8,25.2,22.4,18.4,14.4,66,48,34,0.00,40.00,8,1,8,0.00
2013-3-25,51.8,41.4,29.5,26.2,22.2,18.5,72,47,36,0.00,40.00,6,1,8,0.00
2013-3-26,53.6,44.9,38.7,37.2,30.7,22.0,77,59,41,0.00,40.00,6,0,6,0.00
2013-3-27,59.7,44.5,30.6,43.7,34.6,28.8,97,73,36,0.00,40.00,9,1,9,0.00
2013-3-28,60.1,48.2,39.7,44.3,39.4,32.6,96,75,37,0.00,40.00,8,1,8,0.04
2013-3-29,66.7,51.7,41.9,45.8,39.8,33.9,95,69,33,0.00,40.00,8,0,8,0.04
2013-3-30,68.0,51.3,34.7,42.4,37.0,33.4,97,64,33,0.00,40.00,8,1,8,0.00
2013-3-31,67.5,46.7,40.8,37.1,34.8,30.0,83,65,32,0.00,40.00,9,0,9,0.00
2013-4-1,66.2,50.5,36.3,43.7,36.9,33.6,91,64,34,0.00,40.00,9,1,9,0.00
2013-4-2,68.4,49.5,35.2,39.2,34.9,31.7,96,63,30,0.00,40.00,12,2,12,0.00
2013-4-3,68.2,51.4,34.5,38.2,32.1,26.6,94,55,23,0.00,40.00,8,1,8,0.00
2013-4-4,67.1,52.0,42.4,42.6,37.2,33.2,92,58,33,0.00,40.00,20,2,20,0.04
2013-4-5,60.3,47.8,39.2,41.5,35.5,30.0,96,66,34,0.00,40.00,13,2,13,0.00
2013-4-6,58.3,47.8,42.3,40.1,32.3,27.3,83,56,35,0.00,40.00,16,4,16,0.00
2013-4-7,52.2,43.5,32.7,37.3,28.3,19.9,80,56,36,0.00,40.00,22,5,22,0.04
2013-4-8,53.8,39.1,26.2,25.8,22.9,18.8,87,55,32,0.00,40.00,12,1,12,0.00
2013-4-9,60.8,42.9,23.9,30.5,24.6,19.7,90,54,25,0.00,40.00,7,1,7,0.00
2013-4-10,60.3,55.3,38.8,38.3,32.2,24.8,57,42,35,0.00,40.00,15,5,15,0.00
2013-4-11,56.3,44.3,35.6,27.6,24.4,21.9,65,46,32,0.00,40.00,8,1,8,0.00
2013-4-12,60.6,52.5,27.0,28.6,23.4,19.5,78,34,22,0.00,40.00,16,5,16,0.00
2013-4-13,49.8,38.5,32.7,27.8,17.3,15.1,52,43,28,0.00,40.00,17,3,17,0.00
2013-4-14,51.4,40.3,33.3,31.6,25.4,17.5,91,58,33,0.00,40.00,10,2,10,0.00
2013-4-15,44.6,35.2,32.2,33.0,30.6,22.6,94,84,45,0.00,40.00,12,0,12,0.04
2013-4-16,48.2,41.6,32.0,30.6,24.7,19.9,85,52,34,0.00,40.00,10,2,10,0.04
2013-4-17,55.2,50.2,45.3,21.0,18.5,15.6,32,28,26,0.00,40.00,8,2,8,0.04
2013-4-18,62.8,55.6,47.3,34.3,31.7,19.9,50,41,31,0.00,40.00,9,2,9,0.04
2013-4-19,60.4,53.3,46.8,36.1,31.4,28.2,61,44,34,0.00,40.00,15,5,15,0.04
2013-4-20,61.9,56.0,39.4,30.5,28.5,26.0,70,36,27,0.00,40.00,12,4,12,0.00
2013-4-21,63.0,51.6,39.7,35.9,33.0,27.5,69,51,34,0.00,40.00,15,2,15,0.00
2013-4-22,55.6,44.5,31.5,32.8,23.4,11.4,85,47,26,0.00,40.00,11,2,11,0.00
2013-4-23,64.0,36.1,22.8,20.6,13.6,10.2,60,43,18,0.00,40.00,11,1,11,0.00
2013-4-24,68.7,57.5,33.6,26.1,20.9,11.9,40,25,17,0.00,40.00,9,1,9,0.00
2013-4-25,75.0,63.1,48.9,32.3,27.3,22.8,40,26,21,0.00,40.00,11,2,11,0.00
2013-4-26,78.4,64.9,46.2,34.7,30.8,25.5,51,29,18,0.00,40.00,8,2,8,0.00
2013-4-27,74.8,62.8,43.5,32.2,28.4,24.6,53,29,21,0.00,40.00,14,4,14,0.00
2013-4-28,65.8,58.0,51.8,31.7,27.8,23.9,42,32,24,0.00,40.00,15,5,15,0.00
2013-4-29,59.2,51.9,39.0,34.6,28.2,15.3,53,41,26,0.00,40.00,19,6,19,0.00
2013-4-30,54.5,46.5,34.7,20.3,18.1,15.6,50,32,26,0.00,40.00,12,3,12,0.00
2013-5-1,62.8,56.1,37.2,25.3,21.9,17.9,45,27,22,0.00,40.00,8,2,8,0.00
2013-5-2,73.9,68.8,50.9,30.6,26.1,19.7,31,20,18,0.00,40.00,9,2,9,0.00
2013-5-3,72.1,66.2,52.5,31.7,29.0,23.4,37,25,22,0.00,40.00,10,2,10,0.00
2013-5-4,70.5,63.1,55.9,32.4,28.0,23.4,36,27,22,0.00,40.00,14,4,14,0.00
2013-5-5,74.1,69.1,57.4,32.9,31.5,23.7,35,25,21,0.00,40.00,15,4,15,0.00
2013-5-6,81.5,72.7,54.9,36.2,32.3,24.3,38,23,18,0.00,40.00,12,2,12,0.00
2013-5-7,81.7,63.7,45.5,43.1,36.4,27.2,77,41,19,0.00,40.00,11,1,11,0.00
2013-5-8,82.8,63.3,43.9,47.5,39.5,31.8,81,47,16,0.00,40.00,9,1,9,0.00
2013-5-9,85.3,65.8,48.0,47.3,40.6,34.1,84,46,18,0.00,40.00,15,1,15,0.00
2013-5-10,90.3,69.4,50.2,44.7,40.9,37.1,69,40,17,0.00,40.00,10,2,10,0.00
2013-5-11,91.4,72.2,54.5,47.0,43.3,38.8,72,40,18,0.00,40.00,10,1,10,0.00
2013-5-12,85.3,70.8,58.1,48.9,41.9,35.8,70,39,20,0.00,40.00,13,2,13,0.00
2013-5-13,68.9,58.3,46.9,46.0,37.9,29.6,83,49,31,0.00,40.00,19,3,19,0.00
2013-5-14,68.9,54.8,37.9,36.0,31.1,26.6,80,44,24,0.00,40.00,8,1,8,0.00
2013-5-15,64.2,54.5,43.3,44.1,34.7,28.9,61,48,29,0.00,40.00,10,2,10,0.00
2013-5-16,66.0,57.0,48.9,47.7,40.3,33.5,89,57,33,0.00,40.00,11,2,11,0.00
2013-5-17,63.5,56.7,46.8,45.4,31.7,28.0,93,40,29,0.00,40.00,10,2,10,0.00
2013-5-18,63.3,55.8,46.2,38.1,33.3,30.4,65,43,34,0.00,40.00,14,2,14,0.00
2013-5-19,68.9,61.0,46.2,35.5,34.1,32.0,64,38,28,0.00,40.00,9,1,9,0.00
2013-5-20,77.2,67.7,47.8,37.2,32.7,29.6,54,29,20,0.00,40.00,8,2,9,0.00
2013-5-21,63.5,49.4,37.0,34.5,27.3,20.5,57,43,27,0.00,40.00,17,4,17,0.00
2013-5-22,48.7,42.3,32.2,25.6,22.5,19.0,62,46,38,0.00,40.00,13,3,13,0.00
2013-5-23,62.2,50.2,37.4,31.4,25.7,23.2,57,40,25,0.00,40.00,10,2,10,0.00
2013-5-24,63.0,55.3,41.2,36.1,28.6,25.6,77,38,26,0.00,40.00,12,3,12,0.00
2013-5-25,68.2,64.8,58.1,32.7,30.3,28.6,36,28,24,0.00,40.00,7,2,7,0.00
2013-5-26,66.2,62.1,54.1,39.0,34.4,32.0,54,36,28,0.00,40.00,12,4,12,0.00
2013-5-27,64.4,55.3,48.6,48.3,42.1,36.5,87,63,39,0.00,40.00,12,2,12,0.00
2013-5-28,67.8,56.5,46.2,41.4,33.9,29.0,75,45,27,0.00,40.00,15,3,15,0.00
2013-5-29,63.1,52.2,45.0,45.5,38.0,29.7,94,62,34,0.00,40.00,15,3,15,0.00
2013-5-30,66.9,53.6,38.3,31.6,29.4,26.5,74,42,25,0.00,40.00,11,2,11,0.00
2013-5-31,69.8,64.7,54.3,34.0,30.8,28.6,46,28,24,0.00,40.00,9,1,9,0.00
2013-6-1,77.2,61.2,41.2,41.8,35.5,28.2,80,43,21,0.00,40.00,8,1,8,0.00
2013-6-2,73.6,60.3,44.4,46.8,37.4,30.8,87,48,22,0.00,40.00,11,1,11,0.00
2013-6-3,74.1,64.8,56.8,36.8,27.7,23.2,44,25,19,0.00,40.00,9,1,9,0.00
2013-6-4,80.2,63.3,40.3,35.4,30.7,22.0,59,31,20,0.00,40.00,9,1,9,0.00
2013-6-5,88.0,69.7,48.0,40.3,36.3,31.7,59,32,18,0.00,40.00,10,1,10,0.00
2013-6-6,88.5,71.0,51.6,43.7,39.7,36.0,68,35,18,0.00,40.00,9,1,9,0.00
2013-6-7,88.0,70.2,52.2,43.0,39.9,35.7,70,37,19,0.00,40.00,14,2,14,0.00
2013-6-8,88.2,69.2,47.7,43.0,38.2,31.4,80,38,17,0.00,40.00,9,1,9,0.00
2013-6-9,83.1,67.6,50.9,41.5,35.4,25.5,62,33,19,0.00,40.00,11,1,11,0.00
2013-6-10,79.3,61.0,39.2,34.8,31.2,27.8,68,36,20,0.00,40.00,9,1,9,0.00
2013-6-11,68.7,56.0,43.3,35.1,30.1,24.7,64,39,23,0.00,40.00,15,3,15,0.00
2013-6-12,67.8,54.4,38.5,32.9,30.3,27.4,75,43,26,0.00,40.00,9,1,9,0.00
2013-6-13,66.6,58.3,46.6,33.6,31.7,29.4,58,38,27,0.00,40.00,12,4,12,0.00
2013-6-14,74.3,68.6,59.9,33.6,31.6,29.5,35,26,21,0.00,40.00,8,2,8,0.00
2013-6-15,84.6,74.6,59.5,38.7,34.8,30.5,45,24,16,0.00,40.00,8,1,8,0.00
2013-6-16,83.7,70.4,54.0,44.5,39.1,35.7,64,34,20,0.00,40.00,11,2,11,0.00
2013-6-17,90.5,65.8,42.4,54.9,41.0,35.8,95,46,19,0.00,40.00,10,1,10,0.00
2013-6-18,67.6,57.8,49.1,44.7,39.3,30.7,67,51,34,0.00,40.00,10,1,10,0.00
2013-6-19,67.6,54.9,47.8,36.8,33.6,30.4,60,46,31,0.00,40.00,16,3,16,0.00
2013-6-20,68.9,56.5,38.8,34.5,31.9,28.3,71,42,25,0.00,40.00,11,2,11,0.00
2013-6-21,66.7,54.7,43.7,43.1,36.6,33.0,84,53,34,0.00,40.00,8,0,8,0.00
2013-6-22,78.1,62.1,38.8,39.7,35.4,31.9,88,44,21,0.00,40.00,8,1,8,0.00
2013-6-23,69.1,60.9,54.1,56.7,46.7,34.6,92,63,33,0.00,40.00,7,0,7,0.12
2013-6-24,65.8,56.8,51.6,53.8,46.8,39.6,93,72,40,0.00,40.00,6,0,6,0.08
2013-6-25,68.2,62.4,56.7,47.7,44.8,41.3,71,53,41,0.00,40.00,9,0,9,0.08
2013-6-26,71.2,64.4,56.7,52.6,50.3,45.0,72,61,39,0.00,40.00,6,1,6,0.00
2013-6-27,83.8,76.4,66.4,53.0,47.3,44.8,62,37,29,0.00,40.00,8,2,8,0.00
2013-6-28,90.9,83.2,65.5,55.3,50.0,42.8,65,33,20,0.00,40.00,8,1,8,0.00
2013-6-29,88.3,85.8,72.3,55.3,49.8,45.9,55,29,25,0.00,40.00,10,2,10,0.00
2013-6-30,94.1,87.8,80.1,49.6,47.0,44.3,33,25,19,0.00,40.00,10,2,10,0.00
2013-7-1,97.0,90.4,74.7,58.9,49.0,43.4,58,26,17,0.00,40.00,9,1,9,0.00
2013-7-2,99.1,83.1,64.2,59.8,51.6,43.0,79,39,16,0.00,40.00,12,1,12,0.00
2013-7-3,91.4,79.5,66.6,50.6,44.1,28.5,56,31,19,0.00,40.00,10,2,10,0.00
2013-7-4,83.1,75.7,66.0,39.0,35.0,28.2,32,23,19,0.00,40.00,8,2,8,0.00
2013-7-5,78.3,74.9,67.5,36.7,34.1,31.1,27,23,20,0.00,40.00,9,3,9,0.00
2013-7-6,82.4,75.6,69.6,37.2,33.6,29.3,27,22,16,0.00,40.00,9,1,9,0.00
2013-7-7,84.7,78.8,69.4,44.2,40.7,30.2,37,27,19,0.00,40.00,7,1,7,0.00
2013-7-8,85.8,78.3,66.7,40.5,37.5,34.7,35,24,18,0.00,40.00,7,1,7,0.00
2013-7-9,94.1,76.1,52.9,44.5,40.4,36.0,65,32,17,0.00,40.00,9,1,9,0.00
2013-7-10,94.3,76.3,57.2,48.2,41.9,31.3,68,33,17,0.00,40.00,12,2,12,0.00
2013-7-11,88.7,69.8,57.9,41.6,37.0,24.7,53,32,19,0.00,40.00,8,1,8,0.00
2013-7-12,79.0,73.6,63.7,34.5,32.0,27.8,29,22,18,0.00,40.00,12,3,12,0.12
2013-7-13,76.3,72.2,63.5,34.7,30.8,27.5,28,22,18,0.00,40.00,8,2,8,0.00
2013-7-14,90.0,81.4,65.1,36.9,34.1,27.5,24,19,15,0.00,40.00,7,1,7,0.00
2013-7-15,88.9,73.4,53.4,39.8,33.5,26.2,46,25,15,0.00,40.00,12,2,12,0.00
2013-7-16,86.4,74.2,63.0,42.4,33.5,26.2,34,23,18,0.00,40.00,10,2,10,0.00
2013-7-17,93.0,75.3,56.7,40.9,37.1,31.3,47,28,14,0.00,40.00,13,2,13,0.00
2013-7-18,86.2,66.6,51.3,40.3,38.1,34.8,58,38,16,0.00,40.00,8,1,8,0.00
2013-7-19,95.2,87.9,70.7,38.5,35.7,27.9,26,16,14,0.00,40.00,9,2,9,0.00
2013-7-20,96.3,86.7,74.1,39.2,35.4,27.9,21,16,14,0.00,40.00,9,2,9,0.00
2013-7-21,93.2,92.0,90.9,37.0,36.2,35.6,15,14,14,0.00,40.00,6,2,6,0.00
2013-7-22,95.7,87.9,77.2,39.7,36.3,30.4,21,16,14,0.00,40.00,10,2,10,0.00
2013-7-23,97.3,89.5,72.7,39.7,36.2,31.4,30,15,13,0.00,40.00,8,1,8,0.00
2013-7-24,96.8,89.2,74.8,39.7,37.2,32.3,23,16,14,0.00,40.00,7,1,7,0.00
2013-7-25,97.7,91.5,70.9,39.7,35.9,23.1,17,14,13,0.00,40.00,9,3,9,0.00
2013-7-26,97.5,87.2,71.8,39.7,34.6,26.5,21,16,13,0.00,40.00,12,2,12,0.00
2013-7-27,88.3,84.9,70.7,35.9,34.6,26.5,20,17,15,0.00,40.00,8,2,8,0.00
2013-7-28,84.2,76.6,66.7,35.3,32.3,29.6,26,20,16,0.00,40.00,8,2,8,0.00
2013-7-29,88.2,80.8,69.3,37.7,34.5,30.4,31,19,15,0.00,40.00,10,2,10,0.00
2013-7-30,89.2,80.1,67.3,43.6,35.8,30.6,42,21,15,0.00,40.00,9,2,9,0.00
2013-7-31,86.7,70.1,58.3,46.6,40.0,34.7,53,36,18,0.00,40.00,7,0,8,0.00
2013-8-1,77.4,66.2,59.0,53.5,46.5,36.2,82,52,31,0.00,40.00,12,2,12,0.00
2013-8-2,58.5,58.5,58.5,39.9,39.7,39.4,50,50,49,0.00,40.00,2,1,9,0.00
2013-8-3,86.5,81.9,74.1,39.3,36.8,33.2,28,20,16,0.00,40.00,8,1,8,0.00
2013-8-4,90.1,84.6,69.3,45.2,40.6,33.9,42,22,16,0.00,40.00,9,1,9,0.00
2013-8-5,92.1,79.0,66.0,45.6,40.7,33.7,45,27,17,0.00,40.00,8,1,8,0.00
2013-8-6,95.4,83.3,68.2,43.4,37.4,33.2,36,21,14,0.00,40.00,10,2,10,0.00
2013-8-7,89.6,83.4,73.4,40.5,37.5,34.4,26,20,18,0.00,40.00,13,3,13,0.00
2013-8-8,89.2,80.7,67.8,44.9,39.9,36.2,43,24,18,0.00,40.00,6,1,6,0.00
2013-8-9,90.3,74.7,58.8,54.1,45.3,37.6,80,40,18,0.00,40.00,16,1,16,0.00
2013-8-10,80.1,68.4,58.8,52.3,45.0,39.3,78,45,28,0.00,40.00,10,1,10,0.00
2013-8-11,82.6,73.1,59.0,47.7,40.9,36.8,64,34,20,0.00,40.00,10,2,10,0.00
2013-8-12,87.6,67.5,50.9,48.5,43.9,34.0,86,49,18,0.00,40.00,10,1,10,0.00
2013-8-13,88.9,80.0,66.0,44.1,39.3,35.1,44,24,18,0.00,40.00,8,1,8,0.00
2013-8-14,90.9,81.4,67.1,41.6,39.9,38.0,35,23,18,0.00,40.00,10,2,10,0.00
2013-8-15,85.8,74.0,57.6,42.6,40.2,37.2,50,32,21,0.00,40.00,6,1,6,0.00
2013-8-16,88.3,82.5,75.2,54.8,47.7,44.4,49,30,23,0.00,40.00,11,2,11,0.00
2013-8-17,88.2,78.6,65.7,47.7,43.3,38.1,49,30,19,0.00,40.00,9,2,9,0.00
2013-8-18,89.1,82.7,64.8,46.2,41.8,38.7,51,25,18,0.00,40.00,8,1,8,0.00
2013-8-19,88.9,83.1,71.8,45.6,41.7,40.1,35,24,19,0.00,40.00,8,2,8,0.00
2013-8-20,85.8,78.2,66.7,43.9,33.6,27.0,43,21,14,0.00,40.00,9,2,9,0.00
2013-8-21,87.6,78.4,67.8,38.9,35.0,28.2,30,21,16,0.00,40.00,8,2,8,0.00
2013-8-22,83.1,70.2,62.1,58.8,45.6,28.7,82,47,19,0.00,40.00,10,1,10,0.00
2013-8-23,84.7,76.8,60.4,51.3,41.8,35.6,67,31,20,0.00,40.00,12,3,12,0.00
2013-8-24,84.7,71.9,60.1,56.4,44.1,35.3,72,42,20,0.00,40.00,12,2,12,0.00
2013-8-25,74.1,58.8,52.2,54.8,51.5,46.3,98,79,39,0.00,40.00,9,1,10,0.00
2013-8-26,76.8,70.4,57.4,52.3,43.2,40.0,83,39,29,0.00,40.00,8,1,8,0.00
2013-8-27,82.6,76.1,62.4,51.7,43.4,39.0,68,33,22,0.00,40.00,8,2,8,0.00
2013-8-28,86.7,77.8,62.4,51.7,43.3,38.1,68,31,19,0.00,40.00,8,1,8,0.00
2013-8-29,85.6,74.9,64.8,52.7,46.4,41.2,64,38,22,0.00,40.00,10,2,10,0.00
2013-8-30,81.3,69.3,61.0,50.2,45.8,41.1,67,45,25,0.00,40.00,8,1,8,0.00
2013-8-31,73.6,68.7,61.0,50.2,45.2,39.1,67,44,31,0.00,40.00,5,1,5,0.00
2013-9-1,92.1,79.9,61.9,47.2,41.5,35.6,53,29,14,0.00,40.00,8,2,8,0.00
2013-9-2,85.1,68.4,53.8,50.0,44.8,37.5,78,47,20,0.00,40.00,10,1,10,0.00
2013-9-3,85.8,66.2,51.3,49.6,44.9,36.3,91,52,19,0.00,40.00,9,1,9,0.00
2013-9-4,86.2,65.5,49.1,48.9,44.2,35.9,87,52,18,0.00,40.00,8,1,8,0.00
2013-9-5,65.3,54.9,51.3,49.4,47.3,44.6,87,76,48,0.00,40.00,6,0,6,0.00
2013-9-6,58.3,57.0,55.6,46.3,45.9,45.2,71,67,62,0.00,40.00,4,0,4,0.00
2013-9-7,68.2,60.8,53.4,46.3,43.4,41.6,74,54,40,0.00,40.00,6,2,6,0.00
2013-9-8,77.2,72.5,61.7,43.7,41.0,37.1,46,32,27,27.34,27.32,8,2,8,0.00
2013-9-9,84.6,64.0,51.1,42.4,39.8,34.7,68,46,19,27.32,27.23,9,2,9,0.00
2013-9-10,86.0,76.8,53.4,43.1,39.4,35.7,62,28,19,27.29,27.20,9,2,9,0.00
2013-9-11,88.0,85.2,55.8,42.4,40.8,40.2,56,22,19,27.34,27.26,8,2,8,0.00
2013-9-12,90.3,80.5,63.9,45.0,38.7,28.4,40,23,18,27.29,27.17,10,1,10,0.00
2013-9-13,85.5,68.4,53.4,42.0,36.4,27.8,50,32,21,27.23,27.11,8,0,8,0.00
2013-9-14,88.2,71.3,53.2,45.4,41.7,36.2,71,39,19,27.17,27.05,10,1,10,0.00
2013-9-15,91.8,69.8,56.5,48.7,41.4,31.2,65,39,14,27.14,26.96,15,2,15,0.00
2013-9-16,72.1,57.5,48.0,43.2,40.8,36.2,82,57,28,27.23,27.14,8,1,8,0.00
2013-9-17,63.5,57.5,52.0,49.3,39.0,33.3,67,50,35,27.23,27.08,6,1,6,0.00
2013-9-18,66.0,55.1,46.0,37.7,34.8,30.3,71,50,27,27.32,27.26,5,1,6,0.00
2013-9-19,73.4,53.4,39.9,35.3,33.1,30.7,76,52,24,27.32,27.20,10,2,10,0.00
2013-9-20,76.6,61.3,41.0,47.6,33.1,28.5,74,38,21,27.20,26.90,10,2,10,0.00
2013-9-21,68.5,59.5,47.5,48.3,36.8,34.6,77,44,30,27.05,26.93,9,2,10,0.04
2013-9-22,64.8,54.2,48.6,42.4,38.0,33.7,67,55,34,27.11,26.99,10,2,10,0.04
2013-9-23,65.5,62.3,52.5,36.8,35.5,33.1,49,37,34,27.23,27.11,10,3,10,0.04
2013-9-24,59.7,49.7,46.2,46.6,39.8,32.3,92,70,42,27.23,27.11,6,1,9,0.16
2013-9-25,54.9,50.4,46.0,42.6,34.2,30.2,78,55,41,27.17,27.11,8,1,8,0.20
2013-9-26,57.2,51.1,46.2,40.6,33.9,29.1,68,52,40,27.29,27.29,8,1,8,0.08
2013-9-27,61.7,52.8,37.8,41.4,33.1,29.0,76,49,30,27.37,27.26,10,2,10,0.08
2013-9-28,64.6,60.8,46.6,47.1,42.9,38.0,79,53,40,27.29,26.93,15,4,15,0.47
2013-9-29,56.8,51.9,45.9,48.5,40.7,34.1,94,68,43,27.02,26.81,23,4,23,0.31
2013-9-30,56.8,52.0,45.9,48.3,31.6,28.4,92,46,38,27.26,26.81,18,6,18,0.12
2013-10-1,51.3,47.5,39.2,37.4,31.9,27.5,73,55,47,27.40,27.26,6,1,6,0.12
2013-10-2,50.0,43.5,32.9,37.3,29.5,26.3,86,58,42,27.40,27.26,8,1,8,0.12
2013-10-3,51.6,42.3,35.6,37.7,30.3,26.9,96,64,40,27.61,27.34,8,0,8,0.12
2013-10-4,58.6,52.3,30.0,30.6,28.8,25.9,89,43,30,27.70,27.61,7,1,7,0.04
2013-10-5,66.4,54.1,41.7,32.0,29.1,26.3,64,40,24,27.61,27.46,8,1,8,0.04
2013-10-6,70.7,60.1,42.1,31.6,29.1,25.1,63,32,22,27.46,27.26,5,2,5,0.04
2013-10-7,56.3,50.9,43.7,34.3,31.2,27.6,61,47,33,27.34,27.26,12,3,12,0.04
2013-10-8,53.2,47.7,41.9,35.2,31.0,29.2,69,53,41,27.29,27.20,11,2,11,0.04
2013-10-9,48.6,43.2,37.9,34.0,31.4,29.1,82,64,48,27.29,27.20,6,0,6,0.04
2013-10-10,57.9,53.5,37.9,33.0,28.7,26.6,82,39,34,27.23,27.17,6,2,6,0.00
2013-10-11,56.3,51.0,38.1,33.4,30.7,26.7,79,47,36,27.34,27.23,6,0,6,0.00
2013-10-12,51.1,47.4,38.1,37.7,33.0,27.6,80,58,42,27.34,27.26,8,1,8,0.00
2013-10-13,56.1,51.3,37.4,37.3,31.1,28.5,78,47,37,27.49,27.34,10,1,10,0.00
2013-10-14,56.3,46.3,36.9,31.6,28.8,23.1,76,52,35,27.58,27.49,7,1,7,0.00
2013-10-15,58.5,51.4,36.9,27.8,26.0,23.9,59,37,29,27.58,27.43,6,2,6,0.00
2013-10-16,59.4,46.3,32.7,29.0,26.5,22.5,72,48,27,27.43,27.34,8,1,8,0.00
2013-10-17,59.9,44.0,30.2,30.5,27.6,25.0,83,56,28,27.49,27.40,6,0,6,0.00
2013-10-18,59.9,47.1,36.5,32.0,29.8,28.3,74,53,34,27.49,27.40,7,1,7,0.00
2013-10-19,68.4,62.1,36.3,31.0,29.5,26.3,73,30,23,27.43,27.32,8,2,8,0.00
2013-10-20,54.0,51.7,49.5,28.6,27.7,26.8,42,39,38,27.43,27.32,6,2,6,0.00
2013-10-21,68.4,61.4,44.1,33.0,31.6,29.0,60,34,26,27.43,27.37,10,1,10,0.00
2013-10-22,59.7,56.0,44.1,32.6,31.5,30.6,60,40,36,27.40,27.40,4,1,4,0.00
2013-10-23,63.9,55.2,47.3,36.0,33.1,30.2,61,44,34,27.40,27.29,8,1,8,0.00
2013-10-24,63.5,59.3,46.2,36.1,35.1,33.4,63,41,35,27.34,27.29,6,1,6,0.00
2013-10-25,64.8,59.2,46.0,35.8,33.8,31.7,59,39,33,27.46,27.32,8,1,8,0.00
2013-10-26,61.0,59.7,50.5,33.2,33.1,32.8,51,37,35,27.43,27.40,8,2,8,0.00
2013-10-27,61.0,43.4,40.6,43.3,39.2,27.6,98,87,35,27.40,27.05,12,2,12,0.20
2013-10-28,41.4,35.0,32.2,40.8,19.3,17.2,98,53,47,27.14,27.05,9,1,9,0.00
2013-10-29,34.5,32.9,32.2,20.0,19.4,17.4,60,57,54,27.26,27.14,0,0,0,0.00
2013-10-30,52.7,40.8,32.2,31.9,28.6,19.9,76,63,37,27.37,27.26,6,0,6,0.00
2013-10-31,59.0,52.1,39.0,39.7,36.9,29.4,68,57,48,27.40,27.37,10,3,10,0.00
2013-11-1,58.8,49.8,37.6,39.7,36.1,32.5,98,63,40,27.49,27.32,6,1,8,0.00
2013-11-2,50.7,50.7,50.7,37.4,37.4,29.4,60,60,60,27.32,27.26,0,0,0,0.00
2013-11-4,49.8,42.7,40.5,30.0,27.4,25.5,66,55,40,27.37,27.32,10,2,10,0.00
2013-11-5,49.5,47.3,41.2,39.3,37.4,29.6,75,68,63,27.43,27.34,11,2,11,0.00
2013-11-6,60.1,49.7,43.3,43.4,41.4,36.9,95,75,44,27.49,27.37,5,1,5,0.00
2013-11-7,48.6,44.8,40.3,47.5,33.0,25.1,96,66,48,27.37,27.17,17,5,17,0.16
2013-11-8,48.6,42.7,39.0,33.4,31.1,25.9,80,64,42,27.37,27.32,6,1,6,0.16
2013-11-9,43.7,40.1,35.6,33.7,29.9,26.4,87,68,51,27.34,27.32,5,0,5,0.00
2013-11-10,47.3,45.8,38.3,35.0,33.7,32.4,79,63,58,27.34,27.32,5,1,5,0.00
2013-11-11,44.8,42.0,39.7,39.6,36.9,34.9,98,82,68,27.49,27.34,2,0,3,0.00
2013-11-12,54.0,47.8,40.8,41.8,39.8,35.6,90,74,61,27.58,27.49,4,0,4,0.00
2013-11-13,51.8,41.5,34.0,39.5,33.8,30.8,98,76,50,27.64,27.52,6,0,6,0.00
2013-11-14,37.9,33.2,28.0,31.4,25.7,24.1,92,74,63,27.52,27.29,0,0,0,0.00
2013-11-15,43.5,39.4,29.1,26.5,22.9,19.7,85,52,44,27.29,26.81,15,4,15,0.00
2013-11-16,45.7,41.8,38.5,26.7,24.1,22.3,61,49,41,27.05,26.81,15,5,15,0.00
2013-11-17,50.9,46.3,38.8,27.3,24.5,23.1,61,42,37,27.23,27.05,11,4,11,0.00
2013-11-18,51.4,47.6,41.0,34.4,30.0,24.7,64,51,39,27.23,27.02,11,1,11,0.00
2013-11-19,49.8,47.7,44.6,43.4,39.5,32.0,82,73,60,27.05,26.99,8,3,8,0.04
2013-11-20,46.9,32.1,24.6,42.0,7.9,-0.4,83,36,32,27.46,27.02,8,3,9,0.04
2013-11-21,32.2,24.4,12.2,4.8,1.9,-5.1,48,38,30,27.79,27.46,7,1,7,0.04
2013-11-22,32.4,25.2,16.9,8.1,5.8,1.1,58,44,34,27.82,27.73,8,1,8,0.04
2013-11-23,34.5,24.8,15.4,12.1,8.9,4.1,65,51,38,27.76,27.52,5,0,5,0.00
2013-11-24,43.0,31.1,11.1,17.2,12.6,3.6,77,48,35,27.52,27.40,8,2,8,0.00
2013-11-25,39.4,29.4,16.0,16.6,14.8,10.6,79,56,39,27.58,27.49,6,0,6,0.00
2013-11-26,41.7,30.1,21.2,18.9,16.9,13.5,77,59,38,27.52,27.37,5,0,6,0.00
2013-11-27,38.7,31.5,21.2,20.8,19.1,15.1,81,61,45,27.34,27.26,6,1,9,0.00
2013-11-28,42.8,31.0,21.7,21.7,19.5,17.1,87,64,41,27.40,27.32,8,1,8,0.00
2013-11-29,48.2,40.1,24.8,23.6,22.4,20.4,83,50,37,27.49,27.43,6,2,8,0.00
2013-11-30,55.2,47.5,41.0,30.1,24.9,19.5,63,42,31,27.55,27.46,8,2,9,0.00
2013-12-1,57.4,52.5,48.4,37.8,34.6,31.8,63,50,45,27.37,27.11,15,6,18,0.00
2013-12-2,44.6,35.3,27.9,38.1,22.4,15.6,95,61,40,27.17,27.05,10,3,12,0.39
2013-12-3,28.9,18.5,9.5,22.3,6.3,-1.2,81,59,43,27.37,27.20,13,1,15,0.00
2013-12-4,21.9,11.8,3.2,4.0,-2.2,-11.2,61,53,42,27.43,27.37,6,0,6,0.00
2013-12-5,21.9,11.0,0.3,4.3,-3.4,-13.9,64,52,43,27.43,27.29,7,1,7,0.00
2013-12-6,14.5,11.7,9.7,4.9,2.2,0.0,66,65,62,27.32,27.14,11,2,11,0.00
2013-12-7,10.4,2.3,-12.5,1.3,-6.5,-20.8,66,66,66,27.49,27.20,10,2,10,0.04
2013-12-8,15.3,-2.1,-13.7,4.2,-14.2,-21.8,66,56,45,27.64,27.46,8,2,9,0.00
2013-12-9,28.6,11.8,0.3,8.2,-3.9,-15.6,59,49,41,27.64,27.55,11,3,11,0.00
2013-12-10,30.6,18.9,11.1,13.5,7.9,-0.4,89,63,46,27.58,27.52,6,1,6,0.00
2013-12-11,38.5,27.0,11.7,18.0,14.6,8.0,89,61,42,27.55,27.43,8,2,10,0.04
2013-12-12,34.0,24.9,20.1,19.1,11.9,9.7,65,57,45,27.43,27.34,9,4,9,0.00
2013-12-13,43.0,31.6,27.1,28.7,24.9,21.1,97,78,53,27.61,27.34,8,2,8,0.00
2013-12-14,47.1,38.6,27.5,25.8,24.1,22.9,93,57,39,27.61,27.55,6,4,9,0.00
2013-12-15,52.9,44.1,32.5,34.6,28.2,21.1,91,56,36,27.58,27.52,9,1,10,0.00
2013-12-16,34.2,31.0,27.1,29.8,24.6,22.6,98,77,68,27.61,27.49,8,0,8,0.00
2013-12-17,53.1,43.1,34.0,26.0,21.5,18.7,53,43,33,27.40,27.32,9,2,9,0.00
2013-12-18,36.3,35.2,33.3,26.6,23.1,20.8,68,61,56,27.26,27.17,6,1,6,0.00
2013-12-19,30.9,26.8,24.4,10.2,7.2,5.2,52,43,39,27.43,27.37,5,1,6,0.00
2013-12-20,31.1,27.8,24.6,20.9,18.4,9.5,71,68,52,27.37,27.23,8,5,9,0.00
2013-12-21,48.2,46.0,44.1,30.4,29.6,28.8,58,53,48,27.29,27.29,8,3,9,0.00
2013-12-22,50.9,44.1,36.9,33.7,31.4,28.9,83,63,43,27.52,27.43,8,1,8,0.00
2013-12-23,52.3,47.6,36.9,33.3,31.2,26.2,65,53,47,27.64,27.43,17,2,17,0.00
2013-12-24,41.9,36.7,29.8,28.4,26.4,24.7,89,67,51,27.70,27.67,6,3,8,0.00
2013-12-25,41.9,35.3,33.4,25.8,22.8,21.9,72,60,51,27.58,27.55,6,2,6,0.00
2013-12-26,52.7,42.0,28.6,26.4,24.0,21.2,78,52,33,27.55,27.46,8,1,8,0.00
2013-12-27,46.9,42.3,37.9,22.0,20.5,19.2,48,42,37,27.43,27.40,10,4,10,0.00
2013-12-28,43.5,39.7,34.0,22.0,20.2,18.8,54,46,39,27.61,27.55,5,1,6,0.00
2013-12-29,43.7,40.0,37.2,19.8,18.3,17.1,44,41,38,27.55,27.49,6,4,7,0.00
2013-12-30,46.9,44.3,39.6,22.8,21.2,18.9,47,40,35,27.43,27.37,6,2,8,0.00
2013-12-31,52.0,44.2,37.0,25.0,22.1,20.0,50,42,35,27.46,27.40,12,1,12,0.00
2014-1-1,47.3,41.8,32.7,28.7,26.0,24.2,82,54,43,27.55,27.46,6,1,6,0.00
2014-1-2,53.1,45.0,32.4,28.8,26.4,24.2,82,50,36,27.49,27.26,11,3,14,0.00